Weather History for Bloomington, IN

Change the Weather History Date:

Sunday, July 28, 2013

  Actual Average Record
Temperature  
Mean Temperature 61 °F 74 °F  
Max Temperature 73 °F 84 °F 94 °F (2011)
Min Temperature 49 °F 63 °F 49 °F (2013)
Degree Days  
Heating Degree Days 4 0  
Month to date heating degree days 4 0  
Since 1 June heating degree days 11 15  
Since 1 July heating degree days 4 0  
Cooling Degree Days 0 9  
Month to date cooling degree days 236 252  
Year to date cooling degree days 579 542  
Since 1 June cooling degree days 460 460  
Growing Degree Days 10 (Base 50)    
Moisture  
Dew Point 51 °F    
Average Humidity 72    
Maximum Humidity 100    
Minimum Humidity 44    
Precipitation  
Precipitation 0.00 in 0.09 in 0.82 in (2003)
Month to date precipitation 4.17 4.60  
Year to date precipitation 28.75 29.38  
Sea Level Pressure  
Sea Level Pressure 30.00 in    
Wind  
Wind Speed 4 mph (WSW)    
Max Wind Speed 15 mph    
Max Gust Speed 21 mph    
Visibility 10 miles    
Events      
T = Trace of Precipitation, MM = Missing Value Source: NWS Daily Summary

Daily Weather History Graph

Daily Weather History Graph

Search for Another Location

Airport:

Trip Planner

Search our weather history database for the weather conditions in past years. The results will help you decide how hot, cold, wet, or windy it might be!

Date:

Astronomy

Jul. 28, 2013 Rise Set
Actual Time 6:43 AM EDT 9:01 PM EDT
Civil Twilight 6:13 AM EDT 9:31 PM EDT
Nautical Twilight 5:36 AM EDT 10:08 PM EDT
Astronomical Twilight 4:55 AM EDT 10:49 PM EDT
Moon No Moon Rise 1:21 PM EDT (7/28)
Length of Visible Light 15h 18m
Length of Day
14h 18m
Waning Gibbous, 61% of the Moon is Illuminated
Jul 28
Waning Gibbous
Jul 29
Last Quarter
Aug 6
New
Aug 14
First Quarter
Aug 20
Full

Hourly Weather History & Observations

Time (EDT) Temp. Dew Point Humidity Pressure Visibility Wind Dir Wind Speed Gust Speed Precip Events Conditions
12:53 AM 57.0 °F 50.0 °F 77% 29.96 in 10.0 mi WNW 3.5 mph - N/A   Clear
1:53 AM 53.1 °F 50.0 °F 89% 29.96 in 10.0 mi WNW 3.5 mph - N/A   Clear
2:53 AM 52.0 °F 50.0 °F 93% 29.96 in 10.0 mi Calm Calm - N/A   Clear
3:53 AM 51.1 °F 48.9 °F 92% 29.96 in 10.0 mi Calm Calm - N/A   Clear
4:53 AM 50.0 °F 48.0 °F 93% 29.95 in 10.0 mi Calm Calm - N/A   Clear
5:53 AM 48.9 °F 48.0 °F 97% 29.97 in 10.0 mi Calm Calm - N/A   Clear
6:53 AM 48.9 °F 48.0 °F 97% 30.00 in 10.0 mi Calm Calm - N/A   Clear
7:53 AM 53.1 °F 51.1 °F 93% 30.00 in 10.0 mi SW 4.6 mph - N/A   Clear
8:53 AM 57.9 °F 52.0 °F 81% 30.01 in 10.0 mi Calm Calm - N/A   Clear
9:53 AM 63.0 °F 51.1 °F 65% 30.02 in 10.0 mi West 6.9 mph - N/A   Clear
10:53 AM 64.9 °F 48.9 °F 56% 30.02 in 10.0 mi WSW 8.1 mph - N/A   Clear
11:53 AM 68.0 °F 48.9 °F 50% 30.02 in 10.0 mi SW 8.1 mph - N/A   Clear
12:53 PM 70.0 °F 50.0 °F 49% 30.02 in 10.0 mi WSW 10.4 mph - N/A   Scattered Clouds
1:53 PM 71.1 °F 50.0 °F 47% 30.01 in 10.0 mi West 8.1 mph 16.1 mph N/A   Mostly Cloudy
2:53 PM 71.1 °F 48.9 °F 45% 30.00 in 10.0 mi WSW 9.2 mph - N/A   Mostly Cloudy
3:53 PM 70.0 °F 48.9 °F 47% 30.01 in 10.0 mi SW 8.1 mph 18.4 mph N/A   Mostly Cloudy
4:53 PM 70.0 °F 48.0 °F 46% 30.01 in 10.0 mi WSW 5.8 mph - N/A   Mostly Cloudy
5:53 PM 70.0 °F 50.0 °F 49% 30.01 in 10.0 mi WSW 6.9 mph - N/A   Mostly Cloudy
6:53 PM 70.0 °F 51.1 °F 51% 30.01 in 10.0 mi WSW 5.8 mph - N/A   Mostly Cloudy
7:53 PM 68.0 °F 54.0 °F 61% 30.03 in 10.0 mi WSW 3.5 mph - N/A   Overcast
8:53 PM 64.0 °F 60.1 °F 87% 30.04 in 10.0 mi Calm Calm - N/A   Overcast
9:53 PM 61.0 °F 57.9 °F 90% 30.04 in 10.0 mi Calm Calm - N/A   Mostly Cloudy
10:53 PM 60.1 °F 57.9 °F 93% 30.05 in 10.0 mi Calm Calm - N/A   Overcast
11:53 PM 57.9 °F 57.0 °F 97% 30.06 in 10.0 mi Calm Calm - N/A   Mostly Cloudy